Flag for U.S.A. Weather past 2 weeks in Charleston, West Virginia, U.S.A.

Now
63 °F

Passing clouds.


Feels Like: 63 °F
Forecast: 58 / 80 °F
Wind: No wind

Location: Yeager Airport

Current Time: Sep 30, 2014 at 10:36:22 AM

Latest Report: Sep 30, 2014 at 9:54 AM


Visibility: 10 mi

Pressure: 29.93 "Hg

Humidity: 93%

Dew point: 61 °F

Location of CharlestonLocation

Historic Weather in Charleston — Graph

°F

Charleston temperature yesterday

Maximum temperature yesterday: 76 °F (at 12:54 PM)
Minimum temperature yesterday: 60 °F (at 5:54 AM)
Average temperature yesterday: 67 °F

Past Weeks' High & Low Weather Summary

 TemperatureHumidityPressure
High81 °F (Sep 20, 1:54 PM)100% (Sep 15, 8:54 AM)30.39 "Hg (Sep 15, 8:54 AM)
Low45 °F (Sep 23, 6:54 AM)32% (Sep 23, 4:54 PM)29.73 "Hg (Sep 21, 4:54 PM)
Average63 °F82%30.12 "Hg
* Reported Sep 15 8:54 AM — Sep 30 8:54 AM, Charleston, Weather by CustomWeather, © 2014

Note: Actual official high and low records may vary slightly from our data, if they occured in-between our weather recording intervals... More about our weather records

Advertising

Charleston weather history for previous 24 hours

 ConditionsComfort  
Time TempWeatherWind HumidityBarometerVisibility
8:54 AM
Sep 30
60 °FFog.3 mph100%29.93 "Hg0 mi
7:58 AM59 °FFog.No wind96%29.94 "Hg0 mi
6:54 AM58 °FFog.No wind100%29.91 "Hg1 mi
5:54 AM59 °FFog.No wind96%29.90 "Hg1 mi
4:54 AM59 °FFog.No wind96%29.89 "Hg1 mi
3:54 AM59 °FFog.No wind96%29.89 "Hg1 mi
2:54 AM60 °FFog.No wind96%29.90 "Hg1 mi
1:54 AM61 °FFog.No wind97%29.90 "Hg1 mi
12:54 AM63 °FPassing clouds.No wind93%29.90 "Hg7 mi
11:54 PM
Sep 29
64 °FClear.No wind94%29.91 "Hg7 mi
10:54 PM66 °FClear.No wind90%29.92 "Hg10 mi
9:54 PM67 °FPassing clouds.No wind90%29.93 "Hg10 mi
8:54 PM69 °FPassing clouds.3 mph84%29.92 "Hg10 mi
7:54 PM70 °FPartly sunny.5 mph81%29.92 "Hg10 mi
6:54 PM72 °FScattered clouds.5 mph76%29.91 "Hg10 mi
5:54 PM75 °FBroken clouds.7 mph64%29.91 "Hg10 mi
4:54 PM76 °FBroken clouds.6 mph58%29.92 "Hg10 mi
3:54 PM75 °FBroken clouds.5 mph62%29.93 "Hg10 mi
2:54 PM76 °FBroken clouds.3 mph62%29.94 "Hg10 mi
1:54 PM76 °FBroken clouds.5 mph62%29.96 "Hg10 mi
12:54 PM76 °FBroken clouds.8 mph62%29.98 "Hg10 mi
11:54 AM75 °FScattered clouds.6 mph66%30.00 "Hg10 mi
10:54 AM70 °FScattered clouds.6 mph79%30.01 "Hg10 mi
Weather by CustomWeather, © 2014

See weather overviewHow to use our weather pages